Change the Weather History Date:

Sunday, December 4, 2011

  Actual Average Record
Temperature  
Mean Temperature 63 °F 49 °F  
Max Temperature 71 °F 59 °F 78 °F (1998)
Min Temperature 55 °F 38 °F 20 °F (1989)
Degree Days  
Heating Degree Days 2 17  
Month to date heating degree days 56 65  
Since 1 July heating degree days 495 523  
Growing Degree Days 12 (Base 50)    
Moisture  
Dew Point 46 °F    
Average Humidity 55    
Maximum Humidity 72    
Minimum Humidity 38    
Precipitation  
Precipitation 0.00 in 0.17 in 1.93 in (1912)
Month to date precipitation 0.00 0.67  
Year to date precipitation 53.08 49.94  
Snow  
Snow 0.00 in 0.00 in - ()
Month to date snowfall 0.0 0.0  
Since 1 July snowfall T 0.0  
Snow Depth 0.00 in    
Sea Level Pressure  
Sea Level Pressure 30.24 in    
Wind  
Wind Speed 11 mph (SE)    
Max Wind Speed 21 mph    
Max Gust Speed 30 mph    
Visibility 10 miles    
Events      
T = Trace of Precipitation, MM = Missing Value Source: NWS Daily Summary

Daily Weather History Graph

Daily Weather History Graph

Search for Another Location

Airport or City:

Trip Planner

Search our weather history database for the weather conditions in past years. The results will help you decide how hot, cold, wet, or windy it might be!

Date:

Astronomy

Dec. 04, 2011 Rise Set
Actual Time 6:35 AM CST 4:38 PM CST
Civil Twilight 6:08 AM CST 5:05 PM CST
Nautical Twilight 5:37 AM CST 5:36 PM CST
Astronomical Twilight 5:07 AM CST 6:06 PM CST
Moon 12:57 PM CST (12/4) 1:12 AM CST (12/4)
Length of Visible Light 10h 57m
Length of Day
10h 03m
Waxing Gibbous, 72% of the Moon is Illuminated
Dec 4
Waxing Gibbous
Dec 10
Full
Dec 17
Last Quarter
Dec 24
New
Jan 1
First Quarter

Hourly Weather History & Observations

Time (CST) Temp. Dew Point Humidity Pressure Visibility Wind Dir Wind Speed Gust Speed Precip Events Conditions
12:53 AM 55.0 °F 32.0 °F 42% 30.32 in 10.0 mi ESE 11.5 mph - N/A   Clear
1:53 AM 55.0 °F 35.1 °F 47% 30.34 in 10.0 mi ESE 11.5 mph 20.7 mph N/A   Clear
2:53 AM 55.0 °F 39.9 °F 57% 30.33 in 10.0 mi ESE 8.1 mph - N/A   Clear
3:53 AM 55.0 °F 42.1 °F 62% 30.32 in 10.0 mi SE 9.2 mph 17.3 mph N/A   Clear
4:53 AM 55.0 °F 44.1 °F 67% 30.32 in 10.0 mi ESE 10.4 mph - N/A   Scattered Clouds
5:53 AM 55.9 °F 46.0 °F 69% 30.31 in 10.0 mi SE 12.7 mph 18.4 mph N/A   Clear
6:53 AM 55.9 °F 46.0 °F 69% 30.30 in 10.0 mi ESE 16.1 mph 26.5 mph N/A   Partly Cloudy
7:53 AM 55.9 °F 46.0 °F 69% 30.29 in 10.0 mi SE 15.0 mph 24.2 mph N/A   Partly Cloudy
8:53 AM 57.9 °F 46.9 °F 67% 30.31 in 10.0 mi ESE 11.5 mph - N/A   Overcast
9:53 AM 61.0 °F 46.9 °F 60% 30.30 in 10.0 mi ESE 11.5 mph 24.2 mph N/A   Mostly Cloudy
10:53 AM 63.0 °F 46.9 °F 56% 30.27 in 10.0 mi SE 12.7 mph 18.4 mph N/A   Partly Cloudy
11:53 AM 68.0 °F 48.0 °F 49% 30.25 in 10.0 mi SSE 12.7 mph 25.3 mph N/A   Mostly Cloudy
12:53 PM 70.0 °F 46.9 °F 44% 30.21 in 10.0 mi SSE 16.1 mph 27.6 mph N/A   Partly Cloudy
1:53 PM 70.0 °F 46.9 °F 44% 30.19 in 10.0 mi SSE 20.7 mph 29.9 mph N/A   Scattered Clouds
2:53 PM 69.1 °F 48.9 °F 49% 30.18 in 10.0 mi SSE 13.8 mph 23.0 mph N/A   Partly Cloudy
3:53 PM 66.9 °F 48.9 °F 52% 30.18 in 10.0 mi SSE 8.1 mph 18.4 mph N/A   Partly Cloudy
4:53 PM 64.9 °F 50.0 °F 58% 30.18 in 10.0 mi SE 8.1 mph - N/A   Clear
5:53 PM 63.0 °F 50.0 °F 63% 30.19 in 10.0 mi SE 3.5 mph - N/A   Clear
6:53 PM 64.0 °F 48.9 °F 58% 30.20 in 10.0 mi SE 8.1 mph - N/A   Clear
7:53 PM 62.6 °F 50.0 °F 63% 30.19 in 10.0 mi ESE 11.5 mph - N/A   Clear
8:53 PM 62.1 °F 51.1 °F 67% 30.18 in 10.0 mi ESE 9.2 mph - N/A   Clear
9:53 PM 62.1 °F 51.1 °F 67% 30.19 in 10.0 mi SE 4.6 mph 16.1 mph N/A   Partly Cloudy
10:53 PM 61.0 °F 51.1 °F 70% 30.15 in 10.0 mi SE 12.7 mph 23.0 mph N/A   Partly Cloudy
11:53 PM 61.0 °F 52.0 °F 72% 30.14 in 10.0 mi SE 11.5 mph 18.4 mph N/A   Clear